Other Public Products
Issued by NWS Charleston, SC

Home | Current Version | Previous Version | Text Only | Print | Product List | Glossary On
Versions: 1 2 3 4 5 6 7 8 9 10 11 12 13 14 15 16 17 18 19 20 21 22 23 24 25 26 27 28 29 30 31 32 33 34 35 36 37 38 39 40 41 42 43 44 45 46 47 48 49 50
000
FPUS82 KCHS 171327
OPUCHS

TEST...KCHS/KSAV Gateway Observations...TEST
National Weather Service Charleston SC
900 AM EDT THU AUG 17 2017

NOTE: "fair" indicates few or no clouds below 12,000 feet with no
significant weather and/or obstructions to visibility.

SCZ050-WAZ558-NCZ071-TXZ119-213-PAZ071-DCZ001-FLZ074-172-MI076-
NYZ176-178-MAZ016-IL014-TNZ027-NJZ106-GAZ044-MD014-171400-

...Gateway Observations for Charleston International...

CITY           SKY/WX    TMP DP  RH WIND       PRES   REMARKS
Chas Airport   MOSUNNY   86  78  77 W5        30.04R HX  98
Seattle        CLOUDY    59  56  89 SW5       30.16R
Charlotte      MOSUNNY   82  77  84 NW3       30.07R HX  90
Dallas DFW     CLOUDY    73  71  93 SE10      29.99R
Dallas Love    TSTM      73  71  93 E15       30.01R
Philladelphia  MOSUNNY   76  62  62 NE9       30.06S
Wash National  MOSUNNY   80  74  81 S6        30.04R
Baltimore      CLOUDY    76  75  97 E6        30.04R FOG
Miami          MOSUNNY   88  76  67 VRB3      30.07S HX  99
Detroit        LGT RAIN  73  71  93 SE5       29.90F FOG
Newark         PTSUNNY   74  58  57 NE9       30.07S
Laguardia      PTSUNNY   72  60  66 NE12      30.07S
J F K          PTSUNNY   73  62  68 NE8       30.08S
Boston Logan   PTSUNNY   70  48  45 NW8       30.07S
Ft. Lauderdale MOSUNNY   87  75  67 N5        30.07S HX  96
Chicago O`Hare CLOUDY    73  69  87 SW10      29.78S
Chicago Midway LGT RAIN  73  70  90 S12       29.79S
Houston Bush   MOSUNNY   83  77  82 S5        30.03R HX  92
Houston Hobby  MOSUNNY   83  76  79 SW5       30.02R HX  91
Nashville      MOSUNNY   79  73  82 S5        30.04R
Atlanta        MOSUNNY   80  74  81 NW12      30.11R

$$

GAZ044-118-TXZ119-213-NCZ071-DCZ001-MDZ014-506-PAZ021-071-NJZ106-
NYZ176-178-MAZ106-OHZ011-021-055-MIZ076-KYZ091-ILZ014-INZ047-
MNZ060-ONZ431-171400-

...Gateway Observations for Savannah International...

CITY           SKY/WX    TMP DP  RH WIND       PRES   REMARKS
Savannah Arpt  MOSUNNY   85  77  77 W6        30.06R HX  95
Atlanta        MOSUNNY   80  74  81 NW12      30.11R
Charlotte      MOSUNNY   82  77  84 NW3       30.07R HX  90
Dallas DFW     CLOUDY    73  71  93 SE10      29.99R
Houston Bush   MOSUNNY   83  77  82 S5        30.03R HX  92
Wash National  MOSUNNY   80  74  81 S6        30.04R
Wash Dulles    PTSUNNY   77  73  87 CALM      30.04S
Baltimore      CLOUDY    76  75  97 E6        30.04R FOG
Philadelphia   MOSUNNY   76  62  62 NE9       30.06S
Newark         PTSUNNY   74  58  57 NE9       30.07S
Laguardia      PTSUNNY   72  60  66 NE12      30.07S
J F K          PTSUNNY   73  62  68 NE8       30.08S
Boston         PTSUNNY   70  48  45 NW8       30.07S
Pittsburg      PTSUNNY   72  65  78 SE5       30.02S
Akron          CLOUDY    76  67  73 S9        30.00S
Cleveland      CLOUDY    79  68  69 S8        29.96F
Cincinnati     MOSUNNY   77  76  96 SW9       29.97S
Columbus       PTSUNNY   75  73  93 S5        29.97F
Detroit        LGT RAIN  73  71  93 SE5       29.90F FOG
Chicago O`Hare CLOUDY    73  69  87 SW10      29.78S
Minneapolis    CLOUDY    68  65  90 NW10      29.54R
Indianapolis   CLOUDY    77  74  90 S14       29.90S
Toronto Canada PTSUNNY   70  63  78 SE8       30.00F

$$




USA.gov is the U.S. government's official web portal to all federal, state and local government web resources and services.